Home > Weather > Sarh > Past weeks

Flag for Chad Weather for the Past 2 Weeks in Sarh, Chad

Now
90 °F

Clear.


Feels Like: 95 °F
Forecast: 81 / 103 °F
Wind: 2 mph from South

Location: Sarh Airport

Current Time: Apr 29, 2016 at 11:50:10 PM

Latest Report: Apr 29, 2016 at 11:00 PM


Visibility: 10 mi

Pressure: 29.80 "Hg

Humidity: 52%

Dew Point: 70 °F

Location of SarhLocation

Historic Weather in Sarh — Graph

°F

Sarh Temperature Yesterday

Maximum temperature yesterday: 102 °F (at 3:00 PM)
Minimum temperature yesterday: 79 °F (at 10:00 PM)
Average temperature yesterday: 88 °F

High & Low Weather Summary for the Past Weeks

 TemperatureHumidityPressure
High109 °F (Apr 25, 2:00 PM)100% (Apr 19, 5:00 AM)30.01 "Hg (Apr 19, 5:00 AM)
Low70 °F (Apr 19, 5:00 AM)6% (Apr 17, 3:00 PM)29.68 "Hg (Apr 24, 4:00 PM)
Average90 °F50%29.83 "Hg
* Reported Apr 14 10:00 PM — Apr 29 10:00 PM, Sarh, Weather by CustomWeather, © 2016

Note: Actual official high and low records may vary slightly from our data, if they occured in-between our weather recording intervals... More about our weather records

Advertising

Sarh Weather History for the Previous 24 Hours

Scroll right to see more
 ConditionsComfort  
Time TempWeatherWind HumidityBarometerVisibility
10:00 PM
Fri, Apr 29
90 °FClear.No wind55%29.80 "Hg10 mi
9:00 PM86 °FClear.No wind62%29.80 "Hg10 mi
8:00 PM93 °FClear.No wind47%29.77 "Hg10 mi
7:00 PM95 °FClear.No wind44%29.77 "Hg10 mi
6:00 PM99 °FClear.No wind35%29.74 "Hg10 mi
5:00 PM99 °FPassing clouds.No wind33%29.74 "HgN/A
4:00 PM100 °FPassing clouds.2 mph33%29.77 "HgN/A
2:00 PM100 °FPassing clouds.No wind35%29.80 "HgN/A
1:00 PM99 °FPassing clouds.9 mph37%29.83 "HgN/A
12:00 PM97 °FPassing clouds.9 mph42%29.86 "HgN/A
11:00 AM95 °FSunny.12 mph41%29.89 "Hg10 mi
10:00 AM91 °FSunny.5 mph44%29.89 "Hg10 mi
9:00 AM90 °FSunny.7 mph49%29.89 "Hg10 mi
8:00 AM86 °FSunny.No wind59%29.89 "Hg10 mi
6:00 AM79 °FSunny.No wind74%29.83 "Hg10 mi
5:00 AM79 °FClear.No wind74%29.80 "Hg10 mi
4:00 AM84 °FClear.No wind58%29.80 "Hg10 mi
3:00 AM81 °FClear.5 mph70%29.77 "Hg10 mi
2:00 AM81 °FClear.5 mph70%29.77 "Hg10 mi
1:00 AM81 °FClear.3 mph70%29.83 "Hg10 mi
12:00 AM81 °FPassing clouds.5 mph70%29.83 "HgN/A
Weather by CustomWeather, © 2016

See weather overviewHow to use our weather pages